TimeMDT,TemperatureF,Dew PointF,Humidity,Sea Level PressureIn,VisibilityMPH,Wind Direction,Wind SpeedMPH,Gust SpeedMPH,PrecipitationIn,Events,Conditions,WindDirDegrees,DateUTC
12:53 AM,35.1,-9999,N/A,30.13,10.0,ESE,5.8,-,0.00,,Partly Cloudy,120,2013-05-10 06:53:00
2:53 AM,35.1,-9999,N/A,30.10,-9999.0,SW,4.6,-,N/A,,Clear,220,2013-05-10 08:53:00
3:45 AM,35.6,-9999,N/A,30.24,1.0,SE,3.5,-,N/A,,Mist,140,2013-05-10 09:45:00
3:53 AM,32.0,-9999,N/A,30.13,-9999.0,ESE,3.5,-,N/A,,Mostly Cloudy,120,2013-05-10 09:53:00
4:06 AM,30.2,-9999,N/A,30.24,-9999.0,SE,5.8,-,N/A,,Scattered Clouds,130,2013-05-10 10:06:00
4:53 AM,32.0,-9999,N/A,30.13,-9999.0,ESE,5.8,-,N/A,,Clear,110,2013-05-10 10:53:00
7:53 AM,37.9,-9999,N/A,30.18,-9999.0,Calm,Calm,-,N/A,,Clear,0,2013-05-10 13:53:00
8:53 AM,43.0,39.9,89,30.17,10.0,NNW,3.5,-,N/A,,Scattered Clouds,330,2013-05-10 14:53:00
9:53 AM,46.9,39.0,74,30.16,10.0,NNW,9.2,-,N/A,,Clear,340,2013-05-10 15:53:00
11:53 AM,54.0,26.1,34,30.13,10.0,North,13.8,23.0,N/A,,Partly Cloudy,360,2013-05-10 17:53:00
12:53 PM,55.9,28.9,36,30.13,10.0,North,13.8,20.7,N/A,,Partly Cloudy,350,2013-05-10 18:53:00
1:53 PM,57.0,30.0,36,30.14,10.0,NW,15.0,-,N/A,,Overcast,320,2013-05-10 19:53:00
2:53 PM,60.1,25.0,26,30.11,10.0,North,13.8,19.6,N/A,,Mostly Cloudy,10,2013-05-10 20:53:00
3:53 PM,57.9,27.0,31,30.14,10.0,NNE,15.0,-,N/A,,Mostly Cloudy,30,2013-05-10 21:53:00
4:53 PM,57.9,26.1,30,30.14,10.0,North,13.8,19.6,N/A,,Mostly Cloudy,360,2013-05-10 22:53:00
5:53 PM,57.0,28.0,33,30.15,10.0,North,11.5,20.7,N/A,,Clear,10,2013-05-10 23:53:00
6:50 PM,55.4,28.4,36,30.30,10.0,NE,10.4,-,N/A,,Overcast,40,2013-05-11 00:50:00
6:53 PM,57.0,28.0,33,30.14,10.0,NNE,11.5,-,N/A,,Overcast,30,2013-05-11 00:53:00
7:53 PM,50.0,30.0,46,30.19,10.0,NE,10.4,-,N/A,,Partly Cloudy,40,2013-05-11 01:53:00
8:53 PM,45.0,32.0,60,30.21,10.0,ENE,10.4,-,N/A,,Clear,60,2013-05-11 02:53:00
9:53 PM,42.1,32.0,67,30.24,10.0,ENE,10.4,-,N/A,,Clear,60,2013-05-11 03:53:00
10:53 PM,42.1,33.1,70,30.24,10.0,ENE,9.2,-,N/A,,Clear,60,2013-05-11 04:53:00
11:53 PM,39.9,33.1,77,30.25,10.0,Calm,Calm,-,N/A,,Clear,0,2013-05-11 05:53:00